Location: Napoli
(40.8639°N, 14.2562°E)
Time: 12:31:21
(UTC+02:00)

ISS - Pass Details

Date: 14 October 2017
Orbit: 401 x 408 km, 51.6° (Epoch: 21 October)

Event Time Altitude Azimuth Distance (km) Brightness Sun altitude
Rises 20:52:02 0° 286° (WNW) 2,324 1.3 -28.6°
Reaches altitude 10° 20:55:17 10° 251° (WSW) 1,461 -0.4 -29.2°
Enters shadow 20:55:35 11° 246° (WSW) 1,423 -0.5 -29.3°
